CZ-3B R/B (50575 NORAD) Tracking and Keplerian Element Data

This shows tracking and keplerian element data for the satellite.

Feedback or suggestion? Click here.




ElementValue
Catalog50575
NameCZ-3B R/B
Epoch Orbit69
Epoch Day27.06821504
Epoch Year2022
RAAN335.0803
Inclination27.0142
Eccentricity0.7205683
Argument of Perigee197.5278
Mean Anonmoly110.8209
Mean Motion2.43915545
Decay Rate0.00084768
L11 50575U 21135B 22027.06821504 .00084768 -78879-6 28910-3 0 9995
L22 50575 27.0142 335.0803 7205683 197.5278 110.8209 2.43915545 696

Live tracking and technical data element details for CZ-3B R/B (NORAD 50575). CZ-3B R/B can be tracked NOW for your location showing map with azimuth and elevation plus other details from your city location.

Track the satellite on the map from your city or location and see movement details for azimuth, elevation, latitude, longitude, range, height, and movement on the map or in text.







IsCatalogInMostPopularTable: catalog: 50575, numindb: 21
Update: records affected: 1



GetName: 50575 CZ-3B R/B

Hit Count: updated at: Mon, 23 May 2022 20:12:57 GMT